Time,TemperatureF,DewpointF,PressureIn,WindDirection,WindDirectionDegrees,WindSpeedMPH,WindSpeedGustMPH,Humidity,HourlyPrecipIn,Conditions,Clouds,dailyrainin,SoftwareType,DateUTC
2013-08-19 00:01:00,54.7,53.9,30.13,SSW,201,0.0,0.0,97,0.00,,,0.00,Wunderground v.1.15,2013-08-19 04:01:00,
2013-08-19 00:04:00,54.7,53.9,30.13,SSW,201,0.0,0.0,97,0.00,,,0.00,Wunderground v.1.15,2013-08-19 04:04:00,
2013-08-19 00:06:00,54.7,53.9,30.13,SSW,201,0.0,0.0,97,0.00,,,0.00,Wunderground v.1.15,2013-08-19 04:06:00,
2013-08-19 00:07:00,54.6,53.8,30.13,SSW,201,0.0,0.0,97,0.00,,,0.00,Wunderground v.1.15,2013-08-19 04:07:00,
2013-08-19 00:10:00,54.5,53.7,30.13,SSW,201,0.0,0.0,97,0.00,,,0.00,Wunderground v.1.15,2013-08-19 04:10:00,
2013-08-19 00:15:00,54.3,53.5,30.13,SSW,201,0.0,0.0,97,0.00,,,0.00,Wunderground v.1.15,2013-08-19 04:15:00,
2013-08-19 00:20:00,54.1,53.3,30.13,SSW,201,0.0,0.0,97,0.00,,,0.00,Wunderground v.1.15,2013-08-19 04:20:00,
2013-08-19 00:25:00,54.2,53.4,30.13,SSW,201,0.0,0.0,97,0.00,,,0.00,Wunderground v.1.15,2013-08-19 04:25:00,
2013-08-19 00:30:00,54.3,53.7,30.13,SSW,201,0.0,0.0,98,0.00,,,0.00,Wunderground v.1.15,2013-08-19 04:30:00,
2013-08-19 00:35:00,54.3,53.7,30.13,SSW,201,0.0,0.0,98,0.00,,,0.00,Wunderground v.1.15,2013-08-19 04:35:00,
2013-08-19 00:40:00,54.3,53.7,30.13,SSW,201,0.0,0.0,98,0.00,,,0.00,Wunderground v.1.15,2013-08-19 04:40:00,
2013-08-19 00:45:00,54.1,53.5,30.14,SSW,201,0.0,0.0,98,0.00,,,0.00,Wunderground v.1.15,2013-08-19 04:45:00,
2013-08-19 00:51:00,53.9,53.3,30.14,SSW,201,0.0,0.0,98,0.00,,,0.00,Wunderground v.1.15,2013-08-19 04:51:00,
2013-08-19 00:56:00,53.8,53.2,30.14,SSW,201,0.0,0.0,98,0.00,,,0.00,Wunderground v.1.15,2013-08-19 04:56:00,
2013-08-19 01:01:00,53.8,53.2,30.13,SSW,201,0.0,0.0,98,0.00,,,0.00,Wunderground v.1.15,2013-08-19 05:01:00,
2013-08-19 01:06:00,53.8,53.2,30.13,SSW,201,0.0,0.0,98,0.00,,,0.00,Wunderground v.1.15,2013-08-19 05:06:00,
2013-08-19 01:11:00,53.8,53.2,30.13,SSW,201,0.0,0.0,98,0.00,,,0.00,Wunderground v.1.15,2013-08-19 05:11:00,
2013-08-19 01:17:00,53.7,53.1,30.13,SSW,201,0.0,0.0,98,0.00,,,0.00,Wunderground v.1.15,2013-08-19 05:17:00,
2013-08-19 01:22:00,53.5,52.9,30.13,SSW,201,0.0,0.0,98,0.00,,,0.00,Wunderground v.1.15,2013-08-19 05:22:00,
2013-08-19 01:27:00,53.3,52.8,30.13,SSW,201,0.0,0.0,98,0.00,,,0.00,Wunderground v.1.15,2013-08-19 05:27:00,
2013-08-19 01:32:00,53.3,52.8,30.13,SSW,201,0.0,0.0,98,0.00,,,0.00,Wunderground v.1.15,2013-08-19 05:32:00,
2013-08-19 01:37:00,53.3,52.8,30.13,SSW,201,0.0,0.0,98,0.00,,,0.00,Wunderground v.1.15,2013-08-19 05:37:00,
2013-08-19 01:43:00,53.2,52.7,30.13,SSW,201,0.0,0.0,98,0.00,,,0.00,Wunderground v.1.15,2013-08-19 05:43:00,
2013-08-19 01:48:00,53.2,52.7,30.13,SSW,201,0.0,0.0,98,0.00,,,0.00,Wunderground v.1.15,2013-08-19 05:48:00,
2013-08-19 01:53:00,53.3,52.8,30.13,SSW,201,0.0,0.0,98,0.00,,,0.00,Wunderground v.1.15,2013-08-19 05:53:00,
2013-08-19 01:58:00,53.4,52.8,30.12,SSW,201,0.0,0.0,98,0.00,,,0.00,Wunderground v.1.15,2013-08-19 05:58:00,
2013-08-19 02:03:00,53.5,52.9,30.13,SSW,201,0.0,0.0,98,0.00,,,0.00,Wunderground v.1.15,2013-08-19 06:03:00,
2013-08-19 02:09:00,53.4,52.8,30.12,SSW,201,0.0,0.0,98,0.00,,,0.00,Wunderground v.1.15,2013-08-19 06:09:00,
2013-08-19 02:14:00,53.6,53.0,30.12,SSW,201,0.0,0.0,98,0.00,,,0.00,Wunderground v.1.15,2013-08-19 06:14:00,
2013-08-19 02:19:00,53.6,53.0,30.12,SSW,201,0.0,0.0,98,0.00,,,0.00,Wunderground v.1.15,2013-08-19 06:19:00,
2013-08-19 02:24:00,53.6,53.0,30.12,SSW,201,0.0,0.0,98,0.00,,,0.00,Wunderground v.1.15,2013-08-19 06:24:00,
2013-08-19 02:29:00,53.5,52.9,30.12,SSW,201,0.0,0.0,98,0.00,,,0.00,Wunderground v.1.15,2013-08-19 06:29:00,
2013-08-19 02:34:00,53.5,52.9,30.12,SSW,201,0.0,0.0,98,0.00,,,0.00,Wunderground v.1.15,2013-08-19 06:34:00,
2013-08-19 02:39:00,53.6,53.0,30.12,SSW,201,0.0,0.0,98,0.00,,,0.00,Wunderground v.1.15,2013-08-19 06:39:00,
2013-08-19 02:44:00,53.9,53.3,30.12,SSW,201,0.0,0.0,98,0.00,,,0.00,Wunderground v.1.15,2013-08-19 06:44:00,
2013-08-19 02:49:00,53.9,53.3,30.11,SSW,201,0.0,0.0,98,0.00,,,0.00,Wunderground v.1.15,2013-08-19 06:49:00,
2013-08-19 02:54:00,53.9,53.3,30.12,SSW,200,0.0,0.0,98,0.00,,,0.00,Wunderground v.1.15,2013-08-19 06:54:00,
2013-08-19 02:59:00,53.8,53.2,30.11,SSW,201,0.0,0.0,98,0.00,,,0.00,Wunderground v.1.15,2013-08-19 06:59:00,
2013-08-19 03:05:00,53.8,53.2,30.11,SSW,201,0.0,0.0,98,0.00,,,0.00,Wunderground v.1.15,2013-08-19 07:05:00,
2013-08-19 03:10:00,53.8,53.2,30.11,SSW,201,0.0,0.0,98,0.00,,,0.00,Wunderground v.1.15,2013-08-19 07:10:00,
2013-08-19 03:15:00,53.8,53.2,30.11,SSW,201,0.0,0.0,98,0.00,,,0.00,Wunderground v.1.15,2013-08-19 07:15:00,
2013-08-19 03:20:00,53.9,53.3,30.11,SSW,202,0.0,0.0,98,0.00,,,0.00,Wunderground v.1.15,2013-08-19 07:20:00,
2013-08-19 03:25:00,53.8,53.2,30.11,SSW,202,0.0,0.0,98,0.00,,,0.00,Wunderground v.1.15,2013-08-19 07:25:00,
2013-08-19 03:31:00,53.8,53.2,30.11,SSW,201,0.0,0.0,98,0.00,,,0.00,Wunderground v.1.15,2013-08-19 07:31:00,
2013-08-19 03:36:00,54.2,53.6,30.11,SSW,201,0.0,0.0,98,0.00,,,0.00,Wunderground v.1.15,2013-08-19 07:36:00,
2013-08-19 03:41:00,54.2,53.6,30.11,SSW,201,0.0,0.0,98,0.00,,,0.00,Wunderground v.1.15,2013-08-19 07:41:00,
2013-08-19 03:46:00,54.2,53.6,30.11,SSW,201,0.0,0.0,98,0.00,,,0.00,Wunderground v.1.15,2013-08-19 07:46:00,
2013-08-19 03:51:00,54.1,53.5,30.11,SSW,201,0.0,0.0,98,0.00,,,0.00,Wunderground v.1.15,2013-08-19 07:51:00,
2013-08-19 03:57:00,54.1,53.5,30.11,SSW,201,0.0,0.0,98,0.00,,,0.00,Wunderground v.1.15,2013-08-19 07:57:00,
2013-08-19 04:02:00,54.2,53.6,30.11,SSW,201,0.0,0.0,98,0.00,,,0.00,Wunderground v.1.15,2013-08-19 08:02:00,
2013-08-19 04:07:00,54.2,53.6,30.11,SSW,201,0.0,0.0,98,0.00,,,0.00,Wunderground v.1.15,2013-08-19 08:07:00,
2013-08-19 04:12:00,54.2,53.6,30.11,SSW,201,0.0,0.0,98,0.00,,,0.00,Wunderground v.1.15,2013-08-19 08:12:00,
2013-08-19 04:17:00,54.4,53.8,30.11,SSW,201,0.0,0.0,98,0.00,,,0.00,Wunderground v.1.15,2013-08-19 08:17:00,
2013-08-19 04:23:00,54.6,54.0,30.10,SSW,201,0.0,0.0,98,0.00,,,0.00,Wunderground v.1.15,2013-08-19 08:23:00,
2013-08-19 04:28:00,54.6,54.0,30.10,SSW,201,0.0,0.0,98,0.00,,,0.00,Wunderground v.1.15,2013-08-19 08:28:00,
2013-08-19 04:33:00,54.4,53.8,30.11,SSW,201,0.0,0.0,98,0.00,,,0.00,Wunderground v.1.15,2013-08-19 08:33:00,
2013-08-19 04:38:00,54.3,53.7,30.11,SSW,201,0.0,0.0,98,0.00,,,0.00,Wunderground v.1.15,2013-08-19 08:38:00,
2013-08-19 04:43:00,54.3,53.7,30.11,SSW,201,0.0,0.0,98,0.00,,,0.00,Wunderground v.1.15,2013-08-19 08:43:00,
2013-08-19 04:49:00,54.4,53.8,30.11,SSW,201,0.0,0.0,98,0.00,,,0.00,Wunderground v.1.15,2013-08-19 08:49:00,
2013-08-19 04:54:00,54.4,53.8,30.11,SSW,201,0.0,0.0,98,0.00,,,0.00,Wunderground v.1.15,2013-08-19 08:54:00,
2013-08-19 04:59:00,54.5,53.9,30.11,SSW,201,0.0,0.0,98,0.00,,,0.00,Wunderground v.1.15,2013-08-19 08:59:00,
2013-08-19 05:04:00,54.5,53.9,30.11,SSW,201,0.0,0.0,98,0.00,,,0.00,Wunderground v.1.15,2013-08-19 09:04:00,
2013-08-19 05:09:00,54.5,53.9,30.10,SSW,201,0.0,0.0,98,0.00,,,0.00,Wunderground v.1.15,2013-08-19 09:09:00,
2013-08-19 05:15:00,54.5,53.9,30.10,SSW,201,0.0,0.0,98,0.00,,,0.00,Wunderground v.1.15,2013-08-19 09:15:00,
2013-08-19 05:20:00,54.5,53.9,30.10,SSW,201,0.0,0.0,98,0.00,,,0.00,Wunderground v.1.15,2013-08-19 09:20:00,
2013-08-19 05:25:00,54.3,53.7,30.10,SSW,201,0.0,0.0,98,0.00,,,0.00,Wunderground v.1.15,2013-08-19 09:25:00,
2013-08-19 05:30:00,54.2,53.6,30.11,SSW,201,0.0,0.0,98,0.00,,,0.00,Wunderground v.1.15,2013-08-19 09:30:00,
2013-08-19 05:35:00,54.1,53.5,30.11,SSW,201,0.0,0.0,98,0.00,,,0.00,Wunderground v.1.15,2013-08-19 09:35:00,
2013-08-19 05:41:00,54.1,53.5,30.11,SSW,201,0.0,0.0,98,0.00,,,0.00,Wunderground v.1.15,2013-08-19 09:41:00,
2013-08-19 05:46:00,53.9,53.3,30.11,SSW,201,0.0,0.0,98,0.00,,,0.00,Wunderground v.1.15,2013-08-19 09:46:00,
2013-08-19 05:51:00,53.9,53.3,30.11,SSW,201,0.0,0.0,98,0.00,,,0.00,Wunderground v.1.15,2013-08-19 09:51:00,
2013-08-19 05:56:00,53.9,53.3,30.11,SSW,201,0.0,0.0,98,0.00,,,0.00,Wunderground v.1.15,2013-08-19 09:56:00,
2013-08-19 06:01:00,53.9,53.3,30.12,SSW,201,0.0,0.0,98,0.00,,,0.00,Wunderground v.1.15,2013-08-19 10:01:00,
2013-08-19 06:06:00,54.3,53.7,30.11,SSW,201,0.0,0.0,98,0.00,,,0.00,Wunderground v.1.15,2013-08-19 10:06:00,
2013-08-19 06:11:00,54.5,53.9,30.11,SSW,201,0.0,0.0,98,0.00,,,0.00,Wunderground v.1.15,2013-08-19 10:11:00,
2013-08-19 06:16:00,54.5,53.9,30.11,SSW,202,0.0,0.0,98,0.00,,,0.00,Wunderground v.1.15,2013-08-19 10:16:00,
2013-08-19 06:21:00,54.6,54.0,30.11,SSW,201,0.0,0.0,98,0.00,,,0.00,Wunderground v.1.15,2013-08-19 10:21:00,
2013-08-19 06:26:00,54.7,54.1,30.11,SSW,201,0.0,0.0,98,0.00,,,0.00,Wunderground v.1.15,2013-08-19 10:26:00,
2013-08-19 06:31:00,54.4,53.8,30.11,SSW,201,0.0,0.0,98,0.00,,,0.00,Wunderground v.1.15,2013-08-19 10:31:00,
2013-08-19 06:37:00,54.0,53.4,30.11,SSW,201,0.0,0.0,98,0.00,,,0.00,Wunderground v.1.15,2013-08-19 10:37:00,
2013-08-19 06:42:00,54.2,53.6,30.11,SSW,201,0.0,0.0,98,0.00,,,0.00,Wunderground v.1.15,2013-08-19 10:42:00,
2013-08-19 06:47:00,54.3,53.7,30.11,SSW,201,0.0,0.0,98,0.00,,,0.00,Wunderground v.1.15,2013-08-19 10:47:00,
2013-08-19 06:52:00,54.4,53.8,30.11,SSW,201,0.0,0.0,98,0.00,,,0.00,Wunderground v.1.15,2013-08-19 10:52:00,
2013-08-19 06:57:00,54.5,53.9,30.12,SSW,201,0.0,0.0,98,0.00,,,0.00,Wunderground v.1.15,2013-08-19 10:57:00,
2013-08-19 07:03:00,54.6,54.0,30.12,SSW,201,0.0,0.0,98,0.00,,,0.00,Wunderground v.1.15,2013-08-19 11:03:00,
2013-08-19 07:08:00,54.8,54.2,30.11,SSW,201,0.0,0.0,98,0.00,,,0.00,Wunderground v.1.15,2013-08-19 11:08:00,
2013-08-19 07:13:00,54.9,54.3,30.11,SSW,201,0.0,0.0,98,0.00,,,0.00,Wunderground v.1.15,2013-08-19 11:13:00,
2013-08-19 07:18:00,55.1,54.5,30.12,SSW,201,0.0,0.0,98,0.00,,,0.00,Wunderground v.1.15,2013-08-19 11:18:00,
2013-08-19 07:23:00,55.2,54.6,30.12,SSW,201,0.0,0.0,98,0.00,,,0.00,Wunderground v.1.15,2013-08-19 11:23:00,
2013-08-19 07:29:00,55.4,54.8,30.12,SSW,201,0.0,0.0,98,0.00,,,0.00,Wunderground v.1.15,2013-08-19 11:29:00,
2013-08-19 07:34:00,55.9,55.3,30.12,SSW,201,0.0,0.0,98,0.00,,,0.00,Wunderground v.1.15,2013-08-19 11:34:00,
2013-08-19 07:39:00,56.2,55.9,30.12,SSW,201,0.0,0.0,99,0.00,,,0.00,Wunderground v.1.15,2013-08-19 11:39:00,
2013-08-19 14:15:00,74.6,59.8,30.05,SSW,203,3.0,3.0,60,0.00,,,0.00,Wunderground v.1.15,2013-08-19 18:15:00,
2013-08-19 14:21:00,75.0,59.7,30.05,NW,309,2.0,3.0,59,0.00,,,0.00,Wunderground v.1.15,2013-08-19 18:21:00,
2013-08-19 14:26:00,74.6,58.4,30.05,SSW,195,2.0,3.0,57,0.00,,,0.00,Wunderground v.1.15,2013-08-19 18:26:00,
2013-08-19 14:31:00,74.0,58.8,30.05,SSW,210,2.0,3.0,59,0.00,,,0.00,Wunderground v.1.15,2013-08-19 18:31:00,
2013-08-19 14:36:00,73.8,59.0,30.05,SW,235,2.0,2.0,60,0.00,,,0.00,Wunderground v.1.15,2013-08-19 18:36:00,
2013-08-19 14:41:00,73.3,60.4,30.05,North,356,2.0,3.0,64,0.00,,,0.00,Wunderground v.1.15,2013-08-19 18:41:00,
2013-08-19 14:47:00,73.6,60.7,30.05,NNW,336,2.0,2.0,64,0.00,,,0.00,Wunderground v.1.15,2013-08-19 18:47:00,
2013-08-19 14:52:00,73.9,61.0,30.05,West,281,2.0,3.0,64,0.00,,,0.00,Wunderground v.1.15,2013-08-19 18:52:00,
2013-08-19 14:57:00,74.2,60.3,30.04,West,264,2.0,3.0,62,0.00,,,0.00,Wunderground v.1.15,2013-08-19 18:57:00,
2013-08-19 15:02:00,74.8,60.4,30.04,NW,305,2.0,12.0,61,0.00,,,0.00,Wunderground v.1.15,2013-08-19 19:02:00,
2013-08-19 15:07:00,74.6,59.8,30.04,West,259,3.0,12.0,60,0.00,,,0.00,Wunderground v.1.15,2013-08-19 19:07:00,
2013-08-19 15:13:00,73.9,60.5,30.04,WSW,246,3.0,12.0,63,0.00,,,0.00,Wunderground v.1.15,2013-08-19 19:13:00,
2013-08-19 15:18:00,74.1,61.1,30.04,WNW,285,3.0,12.0,64,0.00,,,0.00,Wunderground v.1.15,2013-08-19 19:18:00,
2013-08-19 15:23:00,74.5,59.7,30.04,WSW,248,3.0,12.0,60,0.00,,,0.00,Wunderground v.1.15,2013-08-19 19:23:00,
2013-08-19 15:28:00,75.6,59.3,30.04,WNW,292,2.0,12.0,57,0.00,,,0.00,Wunderground v.1.15,2013-08-19 19:28:00,
2013-08-19 15:33:00,75.8,60.4,30.04,NNW,330,2.0,12.0,59,0.00,,,0.00,Wunderground v.1.15,2013-08-19 19:33:00,
2013-08-19 15:39:00,74.9,59.6,30.04,NW,319,2.0,12.0,59,0.00,,,0.00,Wunderground v.1.15,2013-08-19 19:39:00,
2013-08-19 15:44:00,73.9,60.1,30.04,WNW,285,2.0,12.0,62,0.00,,,0.00,Wunderground v.1.15,2013-08-19 19:44:00,
2013-08-19 15:49:00,73.1,59.3,30.04,West,279,2.0,12.0,62,0.00,,,0.00,Wunderground v.1.15,2013-08-19 19:49:00,
2013-08-19 15:54:00,72.7,59.8,30.04,SW,219,2.0,12.0,64,0.00,,,0.00,Wunderground v.1.15,2013-08-19 19:54:00,
2013-08-19 15:59:00,72.4,60.0,30.04,WNW,287,2.0,12.0,65,0.00,,,0.00,Wunderground v.1.15,2013-08-19 19:59:00,
2013-08-19 16:04:00,72.1,60.5,30.04,West,276,1.0,12.0,67,0.00,,,0.00,Wunderground v.1.15,2013-08-19 20:04:00,
2013-08-19 16:09:00,72.0,60.4,30.04,WNW,293,1.0,12.0,67,0.00,,,0.00,Wunderground v.1.15,2013-08-19 20:09:00,
2013-08-19 16:14:00,71.9,60.3,30.04,West,273,1.0,12.0,67,0.00,,,0.00,Wunderground v.1.15,2013-08-19 20:14:00,
2013-08-19 16:19:00,72.2,59.3,30.04,WNW,292,1.0,12.0,64,0.00,,,0.00,Wunderground v.1.15,2013-08-19 20:19:00,
2013-08-19 16:24:00,72.8,61.2,30.04,West,276,1.0,12.0,67,0.00,,,0.00,Wunderground v.1.15,2013-08-19 20:24:00,
2013-08-19 16:29:00,73.4,60.0,30.03,West,260,2.0,12.0,63,0.00,,,0.00,Wunderground v.1.15,2013-08-19 20:29:00,
2013-08-19 16:34:00,73.7,59.4,30.03,WNW,285,2.0,12.0,61,0.00,,,0.00,Wunderground v.1.15,2013-08-19 20:34:00,
2013-08-19 16:40:00,74.2,61.2,30.04,West,281,3.0,12.0,64,0.00,,,0.00,Wunderground v.1.15,2013-08-19 20:40:00,
2013-08-19 16:45:00,74.0,59.2,30.03,WSW,257,2.0,12.0,60,0.00,,,0.00,Wunderground v.1.15,2013-08-19 20:45:00,
2013-08-19 16:51:00,74.1,60.2,30.03,NNW,336,2.0,12.0,62,0.00,,,0.00,Wunderground v.1.15,2013-08-19 20:51:00,
2013-08-19 16:56:00,74.0,59.7,30.03,WNW,283,2.0,12.0,61,0.00,,,0.00,Wunderground v.1.15,2013-08-19 20:56:00,
2013-08-19 17:02:00,73.2,59.4,30.04,West,281,2.0,12.0,62,0.00,,,0.00,Wunderground v.1.15,2013-08-19 21:02:00,
2013-08-19 17:07:00,72.4,59.5,30.04,West,267,3.0,12.0,64,0.00,,,0.00,Wunderground v.1.15,2013-08-19 21:07:00,
2013-08-19 17:12:00,72.0,59.2,30.04,West,279,3.0,12.0,64,0.00,,,0.00,Wunderground v.1.15,2013-08-19 21:12:00,
2013-08-19 17:17:00,71.8,59.8,30.04,West,274,2.0,12.0,66,0.00,,,0.00,Wunderground v.1.15,2013-08-19 21:17:00,
2013-08-19 17:22:00,72.0,59.2,30.04,NW,314,2.0,12.0,64,0.00,,,0.00,Wunderground v.1.15,2013-08-19 21:22:00,
2013-08-19 17:28:00,72.0,59.6,30.03,NW,323,2.0,12.0,65,0.00,,,0.00,Wunderground v.1.15,2013-08-19 21:28:00,
2013-08-19 17:33:00,72.1,59.7,30.03,SW,216,1.0,12.0,65,0.00,,,0.00,Wunderground v.1.15,2013-08-19 21:33:00,
2013-08-19 17:38:00,71.9,60.3,30.03,West,279,1.0,12.0,67,0.00,,,0.00,Wunderground v.1.15,2013-08-19 21:38:00,
2013-08-19 17:43:00,71.8,60.2,30.03,West,260,1.0,12.0,67,0.00,,,0.00,Wunderground v.1.15,2013-08-19 21:43:00,
2013-08-19 17:48:00,71.7,60.6,30.03,WSW,246,1.0,12.0,68,0.00,,,0.00,Wunderground v.1.15,2013-08-19 21:48:00,
2013-08-19 17:54:00,71.9,61.2,30.03,South,188,1.0,12.0,69,0.00,,,0.00,Wunderground v.1.15,2013-08-19 21:54:00,
2013-08-19 17:59:00,72.3,61.1,30.03,NW,311,1.0,12.0,68,0.00,,,0.00,Wunderground v.1.15,2013-08-19 21:59:00,
2013-08-19 18:05:00,72.1,61.4,30.03,WNW,290,1.0,12.0,69,0.00,,,0.00,Wunderground v.1.15,2013-08-19 22:05:00,
2013-08-19 18:10:00,71.3,61.0,30.03,NW,305,2.0,12.0,70,0.00,,,0.00,Wunderground v.1.15,2013-08-19 22:10:00,
2013-08-19 18:16:00,70.5,60.2,30.03,West,277,2.0,12.0,70,0.00,,,0.00,Wunderground v.1.15,2013-08-19 22:16:00,
2013-08-19 18:21:00,70.1,60.7,30.03,West,280,2.0,12.0,72,0.00,,,0.00,Wunderground v.1.15,2013-08-19 22:21:00,
2013-08-19 18:27:00,69.7,60.3,30.03,West,274,1.0,12.0,72,0.00,,,0.00,Wunderground v.1.15,2013-08-19 22:27:00,
2013-08-19 18:32:00,69.4,60.8,30.03,WSW,240,1.0,12.0,74,0.00,,,0.00,Wunderground v.1.15,2013-08-19 22:32:00,
2013-08-19 18:37:00,69.3,60.7,30.03,West,268,1.0,12.0,74,0.00,,,0.00,Wunderground v.1.15,2013-08-19 22:37:00,
2013-08-19 18:42:00,69.2,60.9,30.03,SW,216,0.0,12.0,75,0.00,,,0.00,Wunderground v.1.15,2013-08-19 22:42:00,
2013-08-19 18:47:00,69.1,61.2,30.03,West,271,0.0,12.0,76,0.00,,,0.00,Wunderground v.1.15,2013-08-19 22:47:00,
2013-08-19 18:52:00,69.0,60.7,30.03,SW,233,1.0,12.0,75,0.00,,,0.00,Wunderground v.1.15,2013-08-19 22:52:00,
2013-08-19 18:57:00,69.0,60.7,30.03,NW,312,1.0,12.0,75,0.00,,,0.00,Wunderground v.1.15,2013-08-19 22:57:00,
2013-08-19 19:03:00,68.9,61.0,30.03,West,276,1.0,12.0,76,0.00,,,0.00,Wunderground v.1.15,2013-08-19 23:03:00,
2013-08-19 19:08:00,68.8,60.9,30.03,SW,214,0.0,12.0,76,0.00,,,0.00,Wunderground v.1.15,2013-08-19 23:08:00,
2013-08-19 19:13:00,68.5,61.0,30.03,SSW,200,1.0,12.0,77,0.00,,,0.00,Wunderground v.1.15,2013-08-19 23:13:00,
2013-08-19 19:18:00,68.3,60.8,30.03,NW,320,1.0,12.0,77,0.00,,,0.00,Wunderground v.1.15,2013-08-19 23:18:00,
2013-08-19 19:23:00,68.0,60.5,30.03,NW,321,0.0,12.0,77,0.00,,,0.00,Wunderground v.1.15,2013-08-19 23:23:00,
2013-08-19 19:28:00,67.7,60.6,30.03,NW,321,0.0,12.0,78,0.00,,,0.00,Wunderground v.1.15,2013-08-19 23:28:00,
2013-08-19 19:34:00,67.1,60.7,30.03,NW,320,0.0,12.0,80,0.00,,,0.00,Wunderground v.1.15,2013-08-19 23:34:00,
2013-08-19 19:39:00,66.5,60.1,30.03,NW,321,0.0,12.0,80,0.00,,,0.00,Wunderground v.1.15,2013-08-19 23:39:00,
2013-08-19 19:44:00,65.8,60.2,30.03,NW,321,0.0,12.0,82,0.00,,,0.00,Wunderground v.1.15,2013-08-19 23:44:00,
2013-08-19 19:49:00,65.2,60.2,30.03,NW,320,0.0,12.0,84,0.00,,,0.00,Wunderground v.1.15,2013-08-19 23:49:00,
2013-08-19 19:54:00,64.5,59.9,30.03,NW,321,0.0,12.0,85,0.00,,,0.00,Wunderground v.1.15,2013-08-19 23:54:00,
2013-08-19 20:00:00,63.8,59.5,30.03,NW,320,0.0,12.0,86,0.00,,,0.00,Wunderground v.1.15,2013-08-20 00:00:00,
2013-08-19 20:05:00,63.4,59.8,30.04,NW,321,0.0,12.0,88,0.00,,,0.00,Wunderground v.1.15,2013-08-20 00:05:00,
2013-08-19 20:10:00,63.0,59.7,30.04,NW,321,0.0,12.0,89,0.00,,,0.00,Wunderground v.1.15,2013-08-20 00:10:00,
2013-08-19 20:15:00,62.6,59.3,30.04,NW,321,0.0,12.0,89,0.00,,,0.00,Wunderground v.1.15,2013-08-20 00:15:00,
2013-08-19 20:20:00,62.3,59.3,30.03,NW,320,0.0,12.0,90,0.00,,,0.00,Wunderground v.1.15,2013-08-20 00:20:00,
2013-08-19 20:26:00,61.9,59.2,30.04,NW,321,0.0,12.0,91,0.00,,,0.00,Wunderground v.1.15,2013-08-20 00:26:00,
2013-08-19 20:31:00,61.4,58.7,30.04,NW,320,0.0,12.0,91,0.00,,,0.00,Wunderground v.1.15,2013-08-20 00:31:00,
2013-08-19 20:36:00,61.3,59.3,30.04,NW,320,0.0,12.0,93,0.00,,,0.00,Wunderground v.1.15,2013-08-20 00:36:00,
2013-08-19 20:41:00,61.1,59.1,30.04,NW,321,0.0,12.0,93,0.00,,,0.00,Wunderground v.1.15,2013-08-20 00:41:00,
2013-08-19 20:46:00,60.8,58.8,30.04,NW,320,0.0,12.0,93,0.00,,,0.00,Wunderground v.1.15,2013-08-20 00:46:00,
2013-08-19 20:52:00,60.5,58.8,30.04,NW,320,0.0,12.0,94,0.00,,,0.00,Wunderground v.1.15,2013-08-20 00:52:00,
2013-08-19 20:57:00,60.1,58.1,30.04,NW,320,0.0,12.0,93,0.00,,,0.00,Wunderground v.1.15,2013-08-20 00:57:00,
2013-08-19 21:02:00,59.8,58.1,30.04,NW,321,0.0,12.0,94,0.00,,,0.00,Wunderground v.1.15,2013-08-20 01:02:00,
2013-08-19 21:07:00,59.5,57.8,30.04,NW,320,0.0,12.0,94,0.00,,,0.00,Wunderground v.1.15,2013-08-20 01:07:00,
2013-08-19 21:12:00,59.2,57.5,30.05,NW,320,0.0,12.0,94,0.00,,,0.00,Wunderground v.1.15,2013-08-20 01:12:00,
2013-08-19 21:18:00,59.1,57.7,30.05,NW,320,0.0,12.0,95,0.00,,,0.00,Wunderground v.1.15,2013-08-20 01:18:00,
2013-08-19 21:23:00,58.7,57.3,30.05,NW,321,0.0,12.0,95,0.00,,,0.00,Wunderground v.1.15,2013-08-20 01:23:00,
2013-08-19 21:28:00,58.3,56.9,30.05,NW,320,0.0,12.0,95,0.00,,,0.00,Wunderground v.1.15,2013-08-20 01:28:00,
2013-08-19 21:33:00,58.1,56.7,30.05,NW,320,0.0,12.0,95,0.00,,,0.00,Wunderground v.1.15,2013-08-20 01:33:00,
2013-08-19 21:38:00,58.0,56.6,30.05,NW,320,0.0,12.0,95,0.00,,,0.00,Wunderground v.1.15,2013-08-20 01:38:00,
2013-08-19 21:44:00,57.8,56.7,30.06,NW,320,0.0,12.0,96,0.00,,,0.00,Wunderground v.1.15,2013-08-20 01:44:00,
2013-08-19 21:49:00,57.8,56.7,30.05,NW,320,0.0,12.0,96,0.00,,,0.00,Wunderground v.1.15,2013-08-20 01:49:00,
2013-08-19 21:54:00,57.6,56.5,30.05,NW,321,0.0,12.0,96,0.00,,,0.00,Wunderground v.1.15,2013-08-20 01:54:00,
2013-08-19 21:59:00,57.4,56.3,30.06,NW,320,0.0,12.0,96,0.00,,,0.00,Wunderground v.1.15,2013-08-20 01:59:00,
2013-08-19 22:04:00,57.1,56.0,30.06,NW,321,0.0,12.0,96,0.00,,,0.00,Wunderground v.1.15,2013-08-20 02:04:00,
2013-08-19 22:10:00,56.8,55.7,30.06,NW,321,0.0,12.0,96,0.00,,,0.00,Wunderground v.1.15,2013-08-20 02:10:00,
2013-08-19 22:15:00,56.7,55.6,30.06,NW,320,0.0,12.0,96,0.00,,,0.00,Wunderground v.1.15,2013-08-20 02:15:00,
2013-08-19 22:20:00,56.7,55.6,30.06,NW,321,0.0,12.0,96,0.00,,,0.00,Wunderground v.1.15,2013-08-20 02:20:00,
2013-08-19 22:25:00,56.2,55.1,30.06,NW,320,0.0,12.0,96,0.00,,,0.00,Wunderground v.1.15,2013-08-20 02:25:00,
2013-08-19 22:30:00,55.8,54.7,30.07,NW,321,0.0,12.0,96,0.00,,,0.00,Wunderground v.1.15,2013-08-20 02:30:00,
2013-08-19 22:36:00,55.7,54.9,30.07,NW,320,0.0,12.0,97,0.00,,,0.00,Wunderground v.1.15,2013-08-20 02:36:00,
2013-08-19 22:41:00,55.7,54.9,30.07,NW,321,0.0,12.0,97,0.00,,,0.00,Wunderground v.1.15,2013-08-20 02:41:00,
2013-08-19 22:46:00,55.4,54.6,30.07,NW,321,0.0,12.0,97,0.00,,,0.00,Wunderground v.1.15,2013-08-20 02:46:00,
2013-08-19 22:51:00,55.2,54.4,30.07,NW,321,0.0,12.0,97,0.00,,,0.00,Wunderground v.1.15,2013-08-20 02:51:00,
2013-08-19 22:56:00,55.2,54.4,30.07,NW,321,0.0,12.0,97,0.00,,,0.00,Wunderground v.1.15,2013-08-20 02:56:00,
2013-08-19 23:01:00,55.2,54.4,30.07,NW,320,0.0,12.0,97,0.00,,,0.00,Wunderground v.1.15,2013-08-20 03:01:00,
2013-08-19 23:06:00,55.2,54.4,30.07,NW,321,0.0,12.0,97,0.00,,,0.00,Wunderground v.1.15,2013-08-20 03:06:00,
2013-08-19 23:11:00,55.1,54.3,30.06,NW,320,0.0,12.0,97,0.00,,,0.00,Wunderground v.1.15,2013-08-20 03:11:00,
2013-08-19 23:16:00,55.1,54.3,30.07,NW,320,0.0,12.0,97,0.00,,,0.00,Wunderground v.1.15,2013-08-20 03:16:00,
2013-08-19 23:21:00,55.2,54.4,30.07,NW,320,0.0,12.0,97,0.00,,,0.00,Wunderground v.1.15,2013-08-20 03:21:00,
2013-08-19 23:26:00,55.1,54.3,30.07,NW,320,0.0,12.0,97,0.00,,,0.00,Wunderground v.1.15,2013-08-20 03:26:00,
2013-08-19 23:32:00,55.0,54.2,30.07,NW,320,0.0,12.0,97,0.00,,,0.00,Wunderground v.1.15,2013-08-20 03:32:00,
2013-08-19 23:37:00,55.0,54.2,30.07,NW,320,0.0,12.0,97,0.00,,,0.00,Wunderground v.1.15,2013-08-20 03:37:00,
2013-08-19 23:42:00,54.9,54.1,30.07,NW,320,0.0,12.0,97,0.00,,,0.00,Wunderground v.1.15,2013-08-20 03:42:00,
2013-08-19 23:47:00,54.8,54.0,30.07,NW,320,0.0,12.0,97,0.00,,,0.00,Wunderground v.1.15,2013-08-20 03:47:00,
2013-08-19 23:52:00,54.9,54.3,30.07,NW,320,0.0,12.0,98,0.00,,,0.00,Wunderground v.1.15,2013-08-20 03:52:00,
2013-08-19 23:58:00,54.8,54.2,30.07,NW,321,0.0,12.0,98,0.00,,,0.00,Wunderground v.1.15,2013-08-20 03:58:00,